CW5404 Weather Reports


Display with metric or nautical units.
time (UTC)temp
F
wind
direction
speed
MPH
gust
MPH
rain 1hr
in
rain 24hr
in
rain mn
in
humidity
%
barometer
mb
20260507202903 65 80 1.0 7.0 0.00 0.00 0.00 58 1018.3
20260507202403 65 62 1.0 7.0 0.00 0.00 0.00 58 1018.5
20260507201903 65 191 4.0 6.0 0.00 0.00 0.00 59 1018.5
20260507201403 64 123 3.0 6.0 0.00 0.00 0.00 61 1018.5
20260507200903 64 207 4.0 8.0 0.00 0.00 0.00 59 1018.7
20260507200403 64 122 0.0 8.0 0.00 0.00 0.00 59 1018.7
20260507195933 64 142 4.0 6.0 0.00 0.00 0.00 59 1018.7
20260507195403 63 126 1.0 6.0 0.00 0.00 0.00 62 1018.8
20260507194903 64 86 3.0 7.0 0.00 0.00 0.00 61 1018.8
20260507194403 63 156 1.0 7.0 0.00 0.00 0.00 59 1018.8
20260507193903 63 59 4.0 5.0 0.00 0.00 0.00 61 1018.8
20260507193403 63 49 3.0 4.0 0.00 0.00 0.00 59 1018.8
20260507192903 63 71 2.0 7.0 0.00 0.00 0.00 61 1018.8
20260507192403 63 223 1.0 7.0 0.00 0.00 0.00 59 1019.0
20260507191902 63 63 0.0 6.0 0.00 0.00 0.00 60 1019.0
20260507191402 63 59 2.0 6.0 0.00 0.00 0.00 60 1019.0
20260507190902 63 113 1.0 5.0 0.00 0.00 0.00 60 1019.2
20260507190402 63 194 1.0 5.0 0.00 0.00 0.00 61 1019.2
20260507185932 62 208 4.0 5.0 0.00 0.00 0.00 60 1019.2
20260507185402 62 89 5.0 6.0 0.00 0.00 0.00 60 1019.3
20260507184902 62 231 1.0 6.0 0.00 0.00 0.00 60 1019.3
20260507184402 62 76 5.0 5.0 0.00 0.00 0.00 63 1019.3
20260507183902 61 155 2.0 5.0 0.00 0.00 0.00 64 1019.3
20260507183402 61 208 2.0 5.0 0.00 0.00 0.00 63 1019.3
20260507182903 60 115 1.0 7.0 0.00 0.00 0.00 65 1019.3
20260507182402 61 5 0.0 7.0 0.00 0.00 0.00 64 1019.4
20260507181902 61 137 3.0 4.0 0.00 0.00 0.00 63 1019.4
20260507181404 61 71 0.0 5.0 0.00 0.00 0.00 63 1019.4
20260507180432 62 107 4.0 5.0 0.00 0.00 0.00 65 1019.5
20260507175903 61 85 0.0 5.0 0.00 0.00 0.00 65 1019.5
20260507175432 62 163 1.0 4.0 0.00 0.00 0.00 64 1019.7
20260507174902 62 101 2.0 3.0 0.00 0.00 0.00 66 1019.7
20260507174402 61 43 0.0 5.0 0.00 0.00 0.00 69 1019.7
20260507173932 60 16 2.0 5.0 0.00 0.00 0.00 70 1019.7
20260507173432 60 122 2.0 5.0 0.00 0.00 0.00 68 1019.7
20260507172902 60 98 2.0 5.0 0.00 0.00 0.00 68 1019.7
20260507172402 60 22 1.0 5.0 0.00 0.00 0.00 68 1019.7
20260507171932 60 74 2.0 5.0 0.00 0.00 0.00 70 1019.7
20260507171402 60 48 2.0 5.0 0.00 0.00 0.00 71 1019.7
20260507170902 60 148 2.0 5.0 0.00 0.00 0.00 69 1019.7
20260507170402 59 91 1.0 3.0 0.00 0.00 0.00 71 1019.7
20260507164902 58 32 3.0 5.0 0.00 0.00 0.00 72 1019.7
20260507164402 58 38 5.0 5.0 0.00 0.00 0.00 72 1019.7
20260507163902 58 200 0.0 4.0 0.00 0.00 0.00 73 1019.8
20260507163402 58 143 0.0 5.0 0.00 0.00 0.00 73 1019.8
20260507162901 57 128 0.0 5.0 0.00 0.00 0.00 74 1019.8
20260507162402 57 47 4.0 4.0 0.00 0.00 0.00 74 1019.7
20260507161932 57 63 2.0 4.0 0.00 0.00 0.00 74 1019.7
20260507161402 57 170 3.0 5.0 0.00 0.00 0.00 73 1019.7
20260507160902 58 97 2.0 5.0 0.00 0.00 0.00 73 1019.8
20260507160432 58 321 0.0 3.0 0.00 0.00 0.00 75 1019.8
20260507155932 57 317 0.0 4.0 0.00 0.00 0.00 78 1019.8
20260507155402 56 44 0.0 4.0 0.00 0.00 0.00 78 1019.9
20260507153402 55 360 3.0 4.0 0.00 0.00 0.00 79 1020.0
20260507152902 55 360 1.0 4.0 0.00 0.00 0.00 80 1020.0
20260507151902 55 360 0.0 4.0 0.00 0.00 0.00 80 1020.0
20260507151402 55 360 1.0 4.0 0.00 0.00 0.00 81 1020.0
20260507150931 55 360 1.0 2.0 0.00 0.00 0.00 82 1020.0
20260507150402 54 360 0.0 2.0 0.00 0.00 0.00 82 1020.0
20260507145902 54 360 0.0 2.0 0.00 0.00 0.00 82 1020.0
20260507145431 54 360 0.0 2.0 0.00 0.00 0.00 82 1019.9
20260507143902 54 360 0.0 0.0 0.00 0.00 0.00 84 1019.9
20260507142431 54 360 0.0 0.0 0.00 0.00 0.00 86 1019.8
20260507141931 53 360 0.0 0.0 0.00 0.00 0.00 86 1019.8
20260507141401 53 360 0.0 0.0 0.00 0.00 0.00 86 1019.8
20260507140931 53 360 0.0 0.0 0.00 0.00 0.00 86 1019.7
20260507140431 53 360 0.0 0.0 0.00 0.00 0.00 87 1019.7
20260507135902 53 360 0.0 0.0 0.00 0.00 0.00 87 1019.7
20260507135402 53 360 0.0 0.0 0.00 0.00 0.00 87 1019.6
20260507134901 53 360 0.0 0.0 0.00 0.00 0.00 88 1019.6
20260507134431 53 360 0.0 0.0 0.00 0.00 0.00 88 1019.6
20260507133901 53 360 0.0 0.0 0.00 0.00 0.00 87 1019.6
20260507133402 53 360 0.0 0.0 0.00 0.00 0.00 88 1019.6
20260507132901 53 360 0.0 0.0 0.00 0.00 0.00 88 1019.6
20260507132401 53 360 0.0 0.0 0.00 0.00 0.00 88 1019.6
20260507131931 53 360 0.0 0.0 0.00 0.00 0.00 88 1019.6
20260507131401 53 360 0.0 0.0 0.00 0.00 0.00 88 1019.6
20260507130431 53 360 0.0 0.0 0.00 0.00 0.00 88 1019.7
20260507125901 53 360 0.0 0.0 0.00 0.00 0.00 88 1019.7
20260507124901 53 360 0.0 0.0 0.00 0.00 0.00 88 1019.7
20260507124402 53 360 0.0 0.0 0.00 0.00 0.00 88 1019.7
20260507123901 53 360 0.0 0.0 0.00 0.00 0.00 88 1019.8
20260507123401 53 360 0.0 0.0 0.00 0.00 0.00 88 1019.8
20260507122931 53 360 0.0 0.0 0.00 0.00 0.00 88 1019.8
20260507122431 53 360 0.0 0.0 0.00 0.00 0.00 88 1019.8
20260507121901 53 360 0.0 0.0 0.00 0.00 0.00 88 1019.8
20260507121401 53 360 0.0 0.0 0.00 0.00 0.00 88 1019.8
20260507120901 53 360 0.0 0.0 0.00 0.00 0.00 88 1020.0
20260507120401 53 360 0.0 0.0 0.00 0.00 0.00 88 1020.0
20260507115901 53 360 0.0 0.0 0.00 0.00 0.00 88 1020.0
20260507114901 53 360 0.0 0.0 0.00 0.00 0.00 87 1020.1
20260507114401 53 360 0.0 0.0 0.00 0.00 0.00 87 1020.1
20260507113431 53 360 0.0 0.0 0.00 0.00 0.00 88 1020.2
20260507112931 53 360 0.0 0.0 0.00 0.00 0.00 88 1020.2
20260507112401 53 360 0.0 0.0 0.00 0.00 0.00 88 1020.1
20260507111901 53 360 0.0 0.0 0.00 0.00 0.00 88 1020.1
20260507111401 53 360 0.0 0.0 0.00 0.00 0.00 88 1020.1
20260507110901 53 360 0.0 0.0 0.00 0.00 0.00 88 1020.3
20260507110401 53 360 0.0 0.0 0.00 0.00 0.00 88 1020.3
20260507104901 53 360 0.0 0.0 0.00 0.00 0.00 87 1020.3
20260507104431 53 360 0.0 0.0 0.00 0.00 0.00 87 1020.3
20260507103931 53 360 0.0 0.0 0.00 0.00 0.00 87 1020.4
20260507102431 52 360 0.0 0.0 0.00 0.00 0.00 88 1020.4
20260507101931 52 360 0.0 0.0 0.00 0.00 0.00 88 1020.4
20260507101401 52 360 0.0 0.0 0.00 0.00 0.00 88 1020.4
20260507100901 52 360 0.0 0.0 0.00 0.00 0.00 88 1020.5
20260507100401 52 360 0.0 0.0 0.00 0.00 0.00 88 1020.5
20260507095901 52 360 0.0 0.0 0.00 0.00 0.00 88 1020.5
20260507095402 52 360 0.0 0.0 0.00 0.00 0.00 88 1020.6
20260507094931 52 360 0.0 0.0 0.00 0.00 0.00 88 1020.6
20260507094401 52 360 0.0 0.0 0.00 0.00 0.00 89 1020.6
20260507093931 52 360 0.0 0.0 0.00 0.00 0.00 89 1020.7
20260507093401 52 360 0.0 0.0 0.00 0.00 0.00 89 1020.7
20260507092901 52 360 0.0 0.0 0.00 0.00 0.00 89 1020.7
20260507091401 52 235 0.0 0.0 0.00 0.00 0.00 89 1020.9
20260507090931 52 360 0.0 0.0 0.00 0.00 0.00 90 1020.9
20260507090401 52 360 0.0 0.0 0.00 0.00 0.00 90 1020.9
20260507085901 52 360 0.0 0.0 0.00 0.00 0.00 90 1020.9
20260507085401 52 236 0.0 0.0 0.00 0.00 0.00 90 1020.9
20260507084401 52 360 0.0 0.0 0.00 0.00 0.00 89 1020.9
20260507083931 52 360 0.0 0.0 0.00 0.00 0.00 89 1020.9
20260507083401 52 360 0.0 0.0 0.00 0.00 0.00 89 1020.9
20260507082901 52 360 0.0 0.0 0.00 0.00 0.00 89 1020.9
20260507082400 52 360 0.0 0.0 0.00 0.00 0.00 89 1020.9
20260507081901 52 235 0.0 0.0 0.00 0.00 0.00 89 1020.9
20260507081400 52 360 0.0 0.0 0.00 0.00 0.00 89 1020.9
20260507075901 52 360 0.0 0.0 0.00 0.00 0.00 89 1020.9
20260507075400 52 360 0.0 0.0 0.00 0.00 0.00 89 1020.9
20260507074930 52 360 0.0 0.0 0.00 0.00 0.00 89 1020.9
20260507074401 52 360 0.0 0.0 0.00 0.00 0.00 89 1020.9
20260507073900 52 360 0.0 1.0 0.00 0.00 0.00 89 1020.9
20260507072900 52 360 0.0 0.0 0.00 0.00 0.00 89 1020.9
20260507071930 51 360 0.0 0.0 0.00 0.00 0.00 89 1020.8
20260507071400 51 360 0.0 0.0 0.00 0.00 0.00 89 1020.8
20260507070930 51 236 0.0 0.0 0.00 0.00 0.00 89 1020.7
20260507070400 51 236 0.0 0.0 0.00 0.00 0.00 88 1020.7
20260507065930 51 236 0.0 0.0 0.00 0.00 0.00 88 1020.7
20260507065431 51 236 0.0 0.0 0.00 0.00 0.00 88 1020.7
20260507064430 51 236 0.0 0.0 0.00 0.00 0.00 87 1020.7
20260507063931 51 235 0.0 0.0 0.00 0.00 0.00 87 1020.7
20260507063430 51 235 0.0 0.0 0.00 0.00 0.00 87 1020.7
20260507062900 51 235 0.0 0.0 0.00 0.00 0.00 86 1020.7
20260507062400 51 235 0.0 0.0 0.00 0.00 0.00 86 1020.7
20260507061931 51 235 0.0 0.0 0.00 0.00 0.00 86 1020.7
20260507061400 51 235 0.0 0.0 0.00 0.00 0.00 85 1020.7
20260507060400 51 235 0.0 0.0 0.00 0.00 0.00 84 1020.7
20260507055900 51 235 0.0 1.0 0.00 0.00 0.00 84 1020.7
20260507055430 52 235 0.0 1.0 0.00 0.00 0.00 83 1020.6
20260507054900 52 234 1.0 1.0 0.00 0.00 0.00 83 1020.6
20260507054430 52 234 0.0 0.0 0.00 0.00 0.00 83 1020.6
20260507053930 52 235 0.0 0.0 0.00 0.00 0.00 83 1020.6
20260507053400 52 360 0.0 0.0 0.00 0.00 0.00 82 1020.6
20260507052930 52 360 0.0 0.0 0.00 0.00 0.00 82 1020.6
20260507052430 53 360 0.0 0.0 0.00 0.00 0.00 82 1020.5
20260507051400 53 360 0.0 0.0 0.00 0.00 0.00 82 1020.5
20260507050900 53 235 0.0 2.0 0.00 0.00 0.00 82 1020.4
20260507045900 53 360 0.0 2.0 0.00 0.00 0.00 82 1020.4
20260507044930 53 360 0.0 1.0 0.00 0.00 0.00 82 1020.3
20260507043930 54 360 0.0 3.0 0.00 0.00 0.00 81 1020.3
20260507043400 54 360 0.0 3.0 0.00 0.00 0.00 81 1020.3
20260507042430 54 360 0.0 1.0 0.00 0.00 0.00 81 1020.2
20260507041930 54 360 0.0 1.0 0.00 0.00 0.00 80 1020.2
20260507041430 54 360 0.0 1.0 0.00 0.00 0.00 80 1020.2
20260507040930 54 360 0.0 1.0 0.00 0.00 0.00 80 1019.9
20260507040430 54 360 0.0 0.0 0.00 0.00 0.00 79 1019.9
20260507035930 55 360 0.0 0.0 0.00 0.00 0.00 79 1019.9
20260507035400 55 360 0.0 1.0 0.00 0.00 0.00 79 1019.8
20260507034900 55 360 0.0 1.0 0.00 0.00 0.00 78 1019.8
20260507034430 55 360 0.0 1.0 0.00 0.00 0.00 78 1019.8
20260507033900 56 360 0.0 0.0 0.00 0.00 0.00 78 1019.7
20260507032930 56 250 0.0 2.0 0.00 0.00 0.00 77 1019.7
20260507032430 56 250 0.0 2.0 0.00 0.00 0.00 77 1019.6
20260507031930 57 73 0.0 0.0 0.00 0.00 0.00 77 1019.6
20260507031430 57 71 0.0 0.0 0.00 0.00 0.00 76 1019.6
20260507030930 57 71 0.0 1.0 0.00 0.00 0.00 76 1019.5
20260507030400 57 70 0.0 1.0 0.00 0.00 0.00 76 1019.5
20260507025900 58 223 0.0 0.0 0.00 0.00 0.00 75 1019.5
20260507024930 58 223 0.0 0.0 0.00 0.00 0.00 74 1019.3
20260507024430 59 223 0.0 1.0 0.00 0.00 0.00 74 1019.3
20260507023900 59 223 0.0 1.0 0.00 0.00 0.00 73 1019.3
20260507022929 60 223 0.0 1.0 0.00 0.00 0.00 72 1019.3
20260507022400 60 298 0.0 1.0 0.00 0.00 0.00 72 1019.3
20260507021929 60 355 0.0 1.0 0.00 0.00 0.00 72 1019.3
20260507021430 61 320 0.0 2.0 0.00 0.00 0.00 71 1019.3
20260507020859 61 320 0.0 2.0 0.00 0.00 0.00 71 1019.3
20260507020359 61 119 0.0 3.0 0.00 0.00 0.00 70 1019.3
20260507015930 61 119 0.0 3.0 0.00 0.00 0.00 69 1019.3
20260507015359 62 98 0.0 2.0 0.00 0.00 0.00 69 1019.3
20260507014859 62 84 0.0 2.0 0.00 0.00 0.00 68 1019.3
20260507013859 63 125 0.0 3.0 0.00 0.00 0.00 68 1019.3
20260507013430 63 122 0.0 3.0 0.00 0.00 0.00 67 1019.3
20260507012930 63 127 1.0 5.0 0.00 0.00 0.00 67 1019.3
20260507012430 64 72 3.0 5.0 0.00 0.00 0.00 66 1019.2
20260507011859 64 102 1.0 3.0 0.00 0.00 0.00 66 1019.2
20260507011400 64 100 0.0 3.0 0.00 0.00 0.00 66 1019.2
20260507010859 65 114 1.0 2.0 0.00 0.00 0.00 65 1019.4
20260507010359 65 256 2.0 3.0 0.00 0.00 0.00 65 1019.4
20260507005929 65 298 0.0 3.0 0.00 0.00 0.00 63 1019.4
20260507005359 66 206 0.0 4.0 0.00 0.00 0.00 63 1019.3
20260507004930 66 328 0.0 4.0 0.00 0.00 0.00 63 1019.3
20260507004429 66 51 1.0 7.0 0.00 0.00 0.00 63 1019.3
20260507003929 66 332 2.0 7.0 0.00 0.00 0.00 63 1019.3
20260507003359 67 253 0.0 4.0 0.00 0.00 0.00 61 1019.3
20260507002429 68 33 1.0 3.0 0.00 0.00 0.00 61 1019.3
20260507001929 68 153 0.0 2.0 0.00 0.00 0.00 61 1019.3
20260507001429 68 155 0.0 3.0 0.00 0.00 0.00 60 1019.3
20260507000859 68 69 2.0 5.0 0.00 0.00 0.00 61 1019.3
20260507000429 68 71 3.0 5.0 0.00 0.00 0.00 62 1019.3
20260506235929 68 51 0.0 3.0 0.00 0.00 0.00 62 1019.3
20260506235429 68 49 1.0 3.0 0.00 0.00 0.00 62 1019.2
20260506234929 68 89 0.0 3.0 0.00 0.00 0.00 60 1019.2
20260506234429 69 42 0.0 7.0 0.00 0.00 0.00 61 1019.2
20260506233929 69 53 2.0 7.0 0.00 0.00 0.00 59 1019.2
20260506233429 69 61 0.0 4.0 0.00 0.00 0.00 59 1019.2
20260506232429 69 126 0.0 3.0 0.00 0.00 0.00 60 1019.3
20260506231929 69 263 1.0 7.0 0.00 0.00 0.00 60 1019.3
20260506231430 69 242 0.0 7.0 0.00 0.00 0.00 59 1019.3
20260506230929 69 20 1.0 6.0 0.00 0.00 0.00 61 1019.3
20260506230429 69 294 2.0 7.0 0.00 0.00 0.00 61 1019.3
20260506225929 69 59 0.0 7.0 0.00 0.00 0.00 62 1019.3
20260506225429 69 69 7.0 7.0 0.00 0.00 0.00 60 1019.4
20260506224428 69 153 1.0 7.0 0.00 0.00 0.00 61 1019.4
20260506223858 69 34 1.0 7.0 0.00 0.00 0.00 60 1019.5
20260506223428 69 26 0.0 5.0 0.00 0.00 0.00 65 1019.5
20260506222428 68 98 1.0 8.0 0.00 0.00 0.00 63 1019.7
20260506221928 69 46 3.0 6.0 0.00 0.00 0.00 63 1019.7
20260506221429 69 360 1.0 5.0 0.00 0.00 0.00 61 1019.7
20260506220928 68 61 1.0 5.0 0.00 0.00 0.00 61 1019.7
20260506220428 68 50 0.0 5.0 0.00 0.00 0.00 65 1019.7
20260506215928 68 28 3.0 5.0 0.00 0.00 0.00 61 1019.7
20260506215358 69 53 2.0 5.0 0.00 0.00 0.00 64 1019.7
20260506213858 68 55 2.0 7.0 0.00 0.00 0.00 63 1019.8
20260506213428 68 126 0.0 6.0 0.00 0.00 0.00 64 1019.8
20260506212928 68 207 5.0 6.0 0.00 0.00 0.00 63 1019.8
20260506211428 68 97 2.0 5.0 0.00 0.00 0.00 64 1019.8
20260506210928 68 111 4.0 5.0 0.00 0.00 0.00 64 1019.9
20260506210358 68 107 2.0 4.0 0.00 0.00 0.00 65 1019.9
20260506205928 67 236 0.0 5.0 0.00 0.00 0.00 69 1019.9
20260506205428 66 171 1.0 6.0 0.00 0.00 0.00 65 1020.0
20260506204928 67 40 1.0 8.0 0.00 0.00 0.00 65 1020.0
20260506204428 67 93 5.0 8.0 0.00 0.00 0.00 65 1020.0
20260506203928 67 32 0.0 4.0 0.00 0.00 0.00 68 1020.1
20260506203428 66 76 0.0 4.0 0.00 0.00 0.00 68 1020.1